sat.trackr.live / text

‹ back to catalog

STARLINK-3700

NORAD 51956 · 2022-025A

PAYLOAD ACTIVE UNKNOWN

§ Identity

Operator
Country
US
Launch date
2022-03-09
Launch site
AFETR
Launch vehicle
Mass (kg)
RCS (m²)

Purposes: comms

External: N2YO · Heavens-Above · Gunter

§ Orbital elements

Epoch: 2026-05-24T22:50:18.581280Z

Period
94.01 min
Inclination
53.1610°
Eccentricity
0.0001308
Mean motion
15.31697905 rev/d
Perigee alt
469.9 km
Apogee alt
471.6 km
Semi-major
6,848.9 km
B*
-4.0210e-5
RAAN
18.9558°
Arg perigee
94.1422°
Mean anomaly
265.9729°
Rev number
23,285

§ Raw data

STARLINK-37001 51956U 22025A   26144.95160395 -.00001613  00000+0 -40210-4 0  99952 51956  53.1610  18.9558 0001308  94.1422 265.9729 15.31697905232850

JSON: /api/v1/satellites/51956 · /tle

For live sub-satellite position, see the globe view (requires WebGL).

§ Visibility from observer

Set your observer location to see the next 7 days of passes ≥ 10°. The values pass through the URL so the page stays shareable.

No JS? Fill the form by hand. The geolocation button needs JavaScript.